Weather History for Paducah, KY

Change the Weather History Date:

Wednesday, July 24, 2013

  Actual Average Record
Temperature  
Mean Temperature 74 °F 79 °F  
Max Temperature 83 °F 89 °F 102 °F (1945)
Min Temperature 65 °F 68 °F 47 °F (1947)
Degree Days  
Heating Degree Days 0 0  
Month to date heating degree days 0 0  
Since 1 June heating degree days 0 4  
Since 1 July heating degree days 0 0  
Cooling Degree Days 9 14  
Month to date cooling degree days 285 336  
Year to date cooling degree days 780 828  
Since 1 June cooling degree days 602 656  
Growing Degree Days 24 (Base 50)    
Moisture  
Dew Point 64 °F    
Average Humidity 72    
Maximum Humidity 93    
Minimum Humidity 51    
Precipitation  
Precipitation 0.00 in 0.14 in 2.09 in (2011)
Month to date precipitation 1.92 3.52  
Year to date precipitation 36.50 28.80  
Snow  
Snow 0.00 in 0.00 in - ()
Month to date snowfall 0.0 0.0  
Since 1 June snowfall 0.0 0.0  
Since 1 July snowfall 0.0 0.0  
Snow Depth 0.00 in    
Sea Level Pressure  
Sea Level Pressure 29.91 in    
Wind  
Wind Speed 7 mph (NNE)    
Max Wind Speed 15 mph    
Max Gust Speed 22 mph    
Visibility 10 miles    
Events      
T = Trace of Precipitation, MM = Missing Value Source: NWS Daily Summary

Daily Weather History Graph

Daily Weather History Graph

Search for Another Location

Airport:

Trip Planner

Search our weather history database for the weather conditions in past years. The results will help you decide how hot, cold, wet, or windy it might be!

Date:

Astronomy

Jul. 24, 2013 Rise Set
Actual Time 5:53 AM CDT 8:08 PM CDT
Civil Twilight 5:24 AM CDT 8:38 PM CDT
Nautical Twilight 4:48 AM CDT 9:14 PM CDT
Astronomical Twilight 4:09 AM CDT 9:53 PM CDT
Moon 9:20 PM CDT (7/24) 8:09 AM CDT (7/24)
Length of Visible Light 15h 13m
Length of Day
14h 14m
Waning Gibbous, 94% of the Moon is Illuminated
Jul 24
Waning Gibbous
Jul 29
Last Quarter
Aug 6
New
Aug 14
First Quarter
Aug 20
Full

Hourly Weather History & Observations

Time (CDT) Temp. Heat Index Dew Point Humidity Pressure Visibility Wind Dir Wind Speed Gust Speed Precip Events Conditions
12:53 AM 69.1 °F - 66.9 °F 93% 29.86 in 10.0 mi WSW 3.5 mph - N/A   Clear
1:53 AM 68.0 °F - 66.9 °F 96% 29.84 in 10.0 mi WSW 6.9 mph - N/A   Clear
2:53 AM 68.0 °F - 66.9 °F 96% 29.85 in 10.0 mi West 4.6 mph - N/A   Clear
3:53 AM 68.0 °F - 66.9 °F 96% 29.85 in 10.0 mi North 4.6 mph - N/A   Clear
4:53 AM 69.1 °F - 66.9 °F 93% 29.86 in 9.0 mi North 5.8 mph - N/A   Clear
5:53 AM 69.1 °F - 66.9 °F 93% 29.87 in 7.0 mi Calm Calm - N/A   Clear
6:53 AM 70.0 °F - 66.9 °F 90% 29.88 in 10.0 mi NE 6.9 mph - N/A   Clear
7:30 AM 71.6 °F - 68.0 °F 88% 29.91 in 10.0 mi NE 6.9 mph - N/A   Mostly Cloudy
7:53 AM 71.1 °F - 66.0 °F 84% 29.90 in 10.0 mi ENE 10.4 mph 17.3 mph N/A   Overcast
8:34 AM 71.6 °F - 62.6 °F 73% 29.92 in 10.0 mi ENE 11.5 mph - N/A   Mostly Cloudy
8:53 AM 72.0 °F - 63.0 °F 73% 29.92 in 10.0 mi East 11.5 mph - N/A   Partly Cloudy
9:53 AM 75.0 °F - 64.0 °F 69% 29.92 in 10.0 mi NE 10.4 mph - N/A   Clear
10:29 AM 75.2 °F - 64.4 °F 69% 29.94 in 10.0 mi NE 5.8 mph - N/A   Mostly Cloudy
10:53 AM 75.9 °F - 64.9 °F 69% 29.94 in 10.0 mi ENE 6.9 mph - N/A   Overcast
11:02 AM 75.2 °F - 64.4 °F 69% 29.94 in 10.0 mi ENE 9.2 mph - N/A   Overcast
11:53 AM 77.0 °F - 64.0 °F 64% 29.94 in 10.0 mi NNE 6.9 mph - N/A   Overcast
12:53 PM 80.1 °F 81.7 °F 64.0 °F 58% 29.94 in 10.0 mi Calm Calm - N/A   Clear
1:53 PM 81.0 °F 83.0 °F 66.0 °F 60% 29.93 in 10.0 mi NNE 11.5 mph 16.1 mph N/A   Partly Cloudy
2:53 PM 82.9 °F 84.6 °F 64.9 °F 54% 29.93 in 10.0 mi NNW 8.1 mph - N/A   Partly Cloudy
3:53 PM 82.9 °F 84.4 °F 64.0 °F 53% 29.92 in 10.0 mi NNE 8.1 mph - N/A   Partly Cloudy
4:53 PM 82.0 °F 83.1 °F 63.0 °F 52% 29.92 in 10.0 mi NW 11.5 mph 18.4 mph N/A   Clear
5:53 PM 80.1 °F 81.2 °F 62.1 °F 54% 29.92 in 10.0 mi North 12.7 mph - N/A   Partly Cloudy
6:53 PM 78.1 °F - 61.0 °F 56% 29.93 in 10.0 mi North 10.4 mph - N/A   Clear
7:53 PM 73.9 °F - 60.1 °F 62% 29.94 in 10.0 mi NNE 8.1 mph - N/A   Clear
8:53 PM 71.1 °F - 60.1 °F 68% 29.95 in 10.0 mi NNE 5.8 mph - N/A   Clear
9:53 PM 70.0 °F - 59.0 °F 68% 29.97 in 10.0 mi NNE 8.1 mph - N/A   Clear
10:53 PM 66.9 °F - 59.0 °F 76% 29.98 in 10.0 mi NNE 4.6 mph - N/A   Clear
11:53 PM 66.0 °F - 59.0 °F 78% 29.99 in 10.0 mi North 4.6 mph - N/A   Clear